Location: Bowden
(51.9167°N, 114.0333°W)
Time: 10:26:37
(UTC+00:00)

Envisat - Pass Details

Date: 08 December 2021
Orbit: 764 x 766 km, 98.2° (Epoch: 28 January)

Event Time Altitude Azimuth Distance (km) Brightness Sun altitude
Rises 00:59:55 0° 210° (SSW) 3,223 7.1 -13.6°
Reaches altitude 10° 01:02:56 10° 229° (SW) 2,303 6.6 -14.0°
Maximum altitude 01:06:22 18° 272° (W) 1,815 5.9 -14.5°
Drops below altitude 10° 01:09:49 10° 315° (NW) 2,315 5.8 -15.0°
Sets 01:12:53 0° 334° (NNW) 3,247 6.4 -15.5°
